QPF
0.01 0.00 0.00 0.01 0.01 0.01 0.01 0.00 0.01 0.00 0.01 0.00 0.01 0.01 0.01 0.01 0.01 0.02 0.02 0.04 0.04 0.03 0.01 0.01 0.01 0.01 0.02 0.02 0.04 0.04 0.05 0.05 0.06 0.05 0.04 0.04 0.03 0.03 0.03 0.02 0.02 0.01 0.01 0.00
0.01 0.00 0.00 0.00 0.00 0.00 0.01 0.01 0.00 0.00 0.00 0.00 0.00 0.00 0.01 0.00 0.01 0.01 0.02 0.02 0.03 0.04 0.04 0.02 0.01 0.01 0.01 0.01 0.02 0.03 0.04 0.05 0.06 0.07 0.06 0.04 0.03 0.03 0.03 0.03 0.03 0.02 0.01 0.01
0.00 0.00 0.00 0.00 0.00 0.01 0.01 0.01 0.01 0.01 0.00 0.00 0.00 0.00 0.01 0.00 0.01 0.02 0.02 0.02 0.01 0.01 0.02 0.02 0.02 0.01 0.00 0.01 0.01 0.02 0.04 0.04 0.05 0.07 0.07 0.06 0.06 0.05 0.03 0.02 0.01 0.01 0.01 0.01
0.01 0.01 0.01 0.01 0.01 0.01 0.01 0.01 0.01 0.01 0.01 0.00 0.00 0.00 0.00 0.01 0.01 0.01 0.01 0.01 0.01 0.00 0.00 0.00 0.01 0.01 0.00 0.01 0.01 0.02 0.03 0.02 0.04 0.05 0.05 0.06 0.05 0.04 0.03 0.03 0.02 0.02 0.02 0.02
0.02 0.01 0.01 0.01 0.01 0.01 0.01 0.01 0.00 0.00 0.00 0.00 0.00 0.00 0.01 0.01 0.01 0.01 0.01 0.00 0.00 0.00 0.00 0.00 0.00 0.01 0.01 0.01 0.02 0.02 0.02 0.03 0.03 0.05 0.05 0.04 0.03 0.03 0.03 0.03 0.03 0.03 0.02 0.02
0.02 0.02 0.01 0.01 0.01 0.01 0.01 0.01 0.01 0.00 0.00 0.00 0.01 0.00 0.01 0.01 0.01 0.00 0.00 0.00 0.00 0.00 0.00 0.00 0.00 0.00 0.01 0.01 0.02 0.02 0.02 0.03 0.03 0.04 0.04 0.04 0.03 0.03 0.03 0.02 0.02 0.03 0.03 0.03
0.02 0.02 0.02 0.01 0.01 0.01 0.02 0.02 0.01 0.01 0.01 0.02 0.01 0.00 0.00 0.01 0.00 0.00 0.00 0.00 0.00 0.00 0.00 0.00 0.00 0.00 0.00 0.01 0.01 0.03 0.03 0.03 0.03 0.03 0.04 0.04 0.03 0.03 0.02 0.02 0.02 0.02 0.02 0.02
0.02 0.02 0.02 0.01 0.02 0.03 0.03 0.02 0.01 0.01 0.01 0.01 0.01 0.01 0.00 0.00 0.00 0.00 0.00 0.00 0.00 0.00 0.00 0.00 0.00 0.01 0.00 0.01 0.01 0.04 0.06 0.03 0.02 0.03 0.04 0.04 0.04 0.03 0.03 0.02 0.02 0.02 0.02 0.02
0.03 0.02 0.01 0.01 0.01 0.02 0.02 0.02 0.01 0.01 0.01 0.01 0.01 0.00 0.00 0.00 0.00 0.00 0.00 0.00 0.00 0.00 0.00 0.00 0.00 0.00 0.00 0.01 0.02 0.04 0.05 0.03 0.02 0.02 0.03 0.03 0.03 0.03 0.03 0.02 0.02 0.02 0.02 0.01
0.03 0.03 0.02 0.01 0.01 0.01 0.01 0.01 0.01 0.00 0.00 0.00 0.00 0.00 0.00 0.00 0.00 0.00 0.00 0.00 0.01 0.01 0.01 0.00 0.00 0.00 0.01 0.01 0.02 0.03 0.03 0.02 0.01 0.01 0.02 0.02 0.03 0.03 0.03 0.03 0.02 0.02 0.02 0.01
0.02 0.03 0.03 0.03 0.02 0.01 0.01 0.00 0.00 0.00 0.00 0.00 0.00 0.00 0.00 0.00 0.00 0.00 0.00 0.00 0.01 0.01 0.02 0.01 0.00 0.01 0.01 0.01 0.02 0.03 0.02 0.02 0.02 0.02 0.02 0.02 0.03 0.02 0.02 0.02 0.03 0.03 0.02 0.02
0.02 0.03 0.02 0.02 0.02 0.01 0.01 0.00 0.00 0.00 0.00 0.00 0.00 0.00 0.00 0.00 0.00 0.00 0.00 0.00 0.01 0.01 0.02 0.01 0.01 0.01 0.01 0.01 0.02 0.02 0.02 0.02 0.02 0.03 0.02 0.02 0.02 0.02 0.02 0.02 0.02 0.03 0.03 0.02
0.02 0.02 0.03 0.02 0.02 0.01 0.01 0.01 0.01 0.01 0.01 0.01 0.00 0.01 0.01 0.01 0.01 0.02 0.05 0.02 0.01 0.02 0.02 0.02 0.01 0.01 0.01 0.01 0.02 0.03 0.03 0.02 0.03 0.02 0.02 0.02 0.02 0.02 0.02 0.01 0.02 0.02 0.02 0.02
0.01 0.02 0.02 0.02 0.02 0.02 0.01 0.02 0.01 0.01 0.00 0.00 0.00 0.01 0.01 0.01 0.01 0.02 0.03 0.04 0.04 0.03 0.02 0.03 0.02 0.02 0.01 0.02 0.02 0.03 0.04 0.03 0.03 0.02 0.02 0.02 0.02 0.02 0.02 0.02 0.02 0.01 0.02 0.02
0.01 0.02 0.02 0.02 0.02 0.01 0.01 0.01 0.01 0.01 0.01 0.00 0.01 0.02 0.02 0.02 0.02 0.04 0.05 0.04 0.01 0.01 0.01 0.02 0.01 0.01 0.01 0.02 0.02 0.03 0.03 0.03 0.03 0.02 0.02 0.02 0.02 0.02 0.01 0.01 0.02 0.01 0.01 0.01
0.01 0.02 0.02 0.02 0.01 0.00 0.00 0.01 0.01 0.01 0.01 0.01 0.01 0.01 0.01 0.02 0.04 0.06 0.07 0.04 0.01 0.01 0.01 0.01 0.01 0.01 0.01 0.02 0.03 0.03 0.02 0.02 0.02 0.02 0.02 0.02 0.02 0.02 0.01 0.01 0.01 0.01 0.01 0.01
0.02 0.02 0.01 0.01 0.00 0.00 0.00 0.01 0.01 0.00 0.00 0.01 0.01 0.01 0.01 0.01 0.01 0.02 0.02 0.03 0.02 0.01 0.01 0.01 0.01 0.01 0.02 0.02 0.04 0.04 0.03 0.02 0.02 0.02 0.02 0.03 0.03 0.02 0.02 0.02 0.02 0.01 0.01 0.01
0.02 0.01 0.00 0.00 0.00 0.00 0.00 0.00 0.00 0.00 0.00 0.00 0.01 0.01 0.02 0.02 0.01 0.01 0.02 0.04 0.04 0.03 0.03 0.03 0.02 0.02 0.03 0.03 0.03 0.04 0.03 0.02 0.02 0.02 0.02 0.02 0.03 0.02 0.03 0.03 0.03 0.02 0.01 0.01
0.01 0.00 0.00 0.00 0.00 0.00 0.00 0.00 0.00 0.00 0.00 0.01 0.01 0.02 0.02 0.02 0.02 0.02 0.03 0.05 0.06 0.05 0.04 0.02 0.02 0.02 0.02 0.03 0.02 0.02 0.02 0.01 0.01 0.01 0.02 0.02 0.03 0.03 0.03 0.04 0.03 0.02 0.02 0.02
0.01 0.00 0.00 0.00 0.00 0.00 0.00 0.00 0.00 0.00 0.00 0.01 0.01 0.02 0.03 0.03 0.03 0.03 0.04 0.04 0.05 0.05 0.03 0.02 0.02 0.02 0.02 0.02 0.01 0.01 0.01 0.01 0.01 0.01 0.01 0.01 0.02 0.02 0.02 0.03 0.03 0.03 0.02 0.02
0.01 0.01 0.01 0.00 0.00 0.01 0.01 0.01 0.01 0.01 0.01 0.01 0.02 0.03 0.04 0.04 0.03 0.03 0.03 0.03 0.03 0.03 0.02 0.02 0.02 0.02 0.01 0.01 0.01 0.01 0.01 0.01 0.01 0.01 0.01 0.01 0.01 0.01 0.01 0.02 0.02 0.02 0.02 0.02
0.01 0.01 0.00 0.00 0.01 0.01 0.01 0.01 0.01 0.01 0.01 0.02 0.02 0.02 0.03 0.05 0.04 0.03 0.02 0.02 0.02 0.02 0.02 0.02 0.01 0.01 0.00 0.01 0.00 0.00 0.01 0.01 0.01 0.01 0.01 0.01 0.01 0.01 0.01 0.02 0.02 0.02 0.01 0.02
0.01 0.01 0.01 0.01 0.01 0.01 0.01 0.01 0.01 0.02 0.02 0.02 0.02 0.03 0.04 0.05 0.05 0.04 0.03 0.03 0.02 0.03 0.02 0.02 0.02 0.01 0.01 0.00 0.00 0.01 0.01 0.01 0.01 0.01 0.01 0.01 0.01 0.01 0.01 0.02 0.02 0.02 0.02 0.02
0.01 0.01 0.01 0.01 0.01 0.01 0.01 0.02 0.02 0.02 0.02 0.02 0.03 0.04 0.05 0.05 0.06 0.06 0.05 0.05 0.06 0.04 0.03 0.04 0.03 0.02 0.02 0.01 0.01 0.01 0.01 0.01 0.01 0.01 0.01 0.01 0.01 0.01 0.01 0.01 0.02 0.02 0.02 0.02
0.01 0.01 0.02 0.02 0.02 0.02 0.02 0.02 0.03 0.02 0.02 0.03 0.03 0.04 0.05 0.05 0.04 0.05 0.06 0.06 0.05 0.05 0.05 0.05 0.05 0.04 0.03 0.02 0.01 0.01 0.01 0.01 0.01 0.01 0.01 0.01 0.01 0.01 0.01 0.01 0.02 0.02 0.02 0.02
0.01 0.02 0.02 0.02 0.02 0.03 0.04 0.04 0.03 0.03 0.03 0.03 0.03 0.03 0.05 0.04 0.03 0.03 0.05 0.06 0.06 0.06 0.06 0.05 0.04 0.04 0.04 0.04 0.03 0.02 0.02 0.01 0.02 0.02 0.02 0.02 0.02 0.01 0.01 0.01 0.01 0.01 0.01 0.01
0.01 0.01 0.01 0.02 0.02 0.03 0.04 0.04 0.04 0.04 0.04 0.03 0.03 0.04 0.05 0.04 0.04 0.04 0.04 0.05 0.06 0.08 0.08 0.07 0.06 0.05 0.04 0.04 0.04 0.04 0.03 0.03 0.02 0.02 0.02 0.02 0.01 0.01 0.01 0.02 0.01 0.01 0.01 0.01
MSLP
1015.09 1015.33 1015.51 1015.63 1015.70 1015.69 1015.63 1015.51 1015.34 1015.14 1014.94 1014.74 1014.58 1014.46 1014.40 1014.40 1014.46 1014.57 1014.71 1014.88 1015.06 1015.25 1015.46 1015.69 1015.94 1016.22 1016.52 1016.86 1017.20 1017.54 1017.87 1018.17 1018.42 1018.62 1018.79 1018.93 1019.05 1019.16 1019.29 1019.43 1019.58 1019.75 1019.94 1020.13
1014.95 1015.08 1015.13 1015.08 1014.97 1014.81 1014.62 1014.44 1014.28 1014.15 1014.07 1014.03 1014.04 1014.09 1014.15 1014.22 1014.28 1014.34 1014.39 1014.43 1014.49 1014.58 1014.71 1014.90 1015.16 1015.48 1015.86 1016.28 1016.72 1017.15 1017.55 1017.90 1018.20 1018.45 1018.65 1018.82 1018.98 1019.13 1019.29 1019.46 1019.64 1019.82 1020.00 1020.17
1014.98 1015.01 1014.92 1014.73 1014.46 1014.15 1013.86 1013.60 1013.42 1013.33 1013.33 1013.40 1013.52 1013.67 1013.80 1013.90 1013.95 1013.95 1013.91 1013.84 1013.79 1013.78 1013.84 1013.99 1014.25 1014.60 1015.04 1015.54 1016.06 1016.57 1017.04 1017.47 1017.83 1018.13 1018.39 1018.61 1018.82 1019.02 1019.23 1019.44 1019.65 1019.84 1020.02 1020.17
1015.14 1015.07 1014.86 1014.54 1014.13 1013.70 1013.30 1012.98 1012.76 1012.66 1012.68 1012.80 1012.98 1013.18 1013.34 1013.45 1013.48 1013.43 1013.31 1013.16 1013.02 1012.93 1012.94 1013.06 1013.32 1013.70 1014.17 1014.72 1015.30 1015.87 1016.41 1016.89 1017.31 1017.67 1017.99 1018.28 1018.55 1018.81 1019.07 1019.33 1019.56 1019.78 1019.95 1020.09
1015.35 1015.18 1014.86 1014.42 1013.90 1013.37 1012.87 1012.47 1012.20 1012.07 1012.08 1012.20 1012.40 1012.61 1012.78 1012.89 1012.90 1012.82 1012.67 1012.48 1012.30 1012.17 1012.15 1012.26 1012.51 1012.89 1013.38 1013.95 1014.56 1015.16 1015.73 1016.25 1016.71 1017.12 1017.50 1017.84 1018.18 1018.50 1018.82 1019.11 1019.38 1019.61 1019.79 1019.91
1015.46 1015.18 1014.77 1014.24 1013.64 1013.02 1012.46 1012.00 1011.67 1011.50 1011.48 1011.58 1011.76 1011.96 1012.14 1012.26 1012.28 1012.21 1012.07 1011.89 1011.71 1011.59 1011.58 1011.68 1011.93 1012.30 1012.78 1013.33 1013.93 1014.52 1015.09 1015.62 1016.10 1016.54 1016.95 1017.35 1017.73 1018.11 1018.47 1018.80 1019.10 1019.34 1019.52 1019.63
1015.36 1014.99 1014.50 1013.90 1013.25 1012.59 1011.99 1011.49 1011.12 1010.91 1010.85 1010.92 1011.09 1011.29 1011.47 1011.61 1011.68 1011.66 1011.57 1011.45 1011.33 1011.26 1011.27 1011.38 1011.62 1011.97 1012.42 1012.93 1013.47 1014.02 1014.55 1015.06 1015.53 1015.98 1016.41 1016.84 1017.26 1017.67 1018.06 1018.42 1018.74 1018.99 1019.17 1019.28
1014.98 1014.54 1014.00 1013.38 1012.71 1012.05 1011.44 1010.92 1010.54 1010.30 1010.22 1010.27 1010.42 1010.62 1010.83 1011.01 1011.14 1011.20 1011.20 1011.17 1011.14 1011.14 1011.20 1011.34 1011.57 1011.89 1012.28 1012.72 1013.19 1013.67 1014.14 1014.60 1015.04 1015.48 1015.91 1016.35 1016.80 1017.23 1017.65 1018.03 1018.36 1018.61 1018.79 1018.89
1014.35 1013.87 1013.31 1012.70 1012.07 1011.43 1010.85 1010.36 1009.98 1009.74 1009.65 1009.68 1009.82 1010.02 1010.26 1010.48 1010.68 1010.83 1010.94 1011.02 1011.08 1011.16 1011.28 1011.45 1011.67 1011.95 1012.28 1012.65 1013.04 1013.43 1013.83 1014.23 1014.64 1015.06 1015.49 1015.93 1016.39 1016.84 1017.27 1017.66 1017.99 1018.25 1018.43 1018.53
1013.58 1013.09 1012.56 1012.00 1011.42 1010.86 1010.34 1009.89 1009.54 1009.31 1009.21 1009.22 1009.34 1009.54 1009.78 1010.03 1010.28 1010.51 1010.71 1010.88 1011.04 1011.20 1011.36 1011.55 1011.78 1012.02 1012.30 1012.60 1012.91 1013.24 1013.58 1013.93 1014.30 1014.70 1015.13 1015.58 1016.05 1016.51 1016.95 1017.35 1017.69 1017.95 1018.13 1018.24
1012.80 1012.34 1011.88 1011.40 1010.92 1010.45 1010.00 1009.62 1009.30 1009.08 1008.96 1008.95 1009.03 1009.19 1009.41 1009.66 1009.92 1010.18 1010.43 1010.66 1010.89 1011.10 1011.30 1011.51 1011.73 1011.96 1012.20 1012.45 1012.71 1012.99 1013.30 1013.63 1013.99 1014.39 1014.83 1015.30 1015.78 1016.25 1016.70 1017.11 1017.46 1017.73 1017.92 1018.04
1012.18 1011.80 1011.42 1011.05 1010.68 1010.31 1009.95 1009.62 1009.34 1009.11 1008.96 1008.89 1008.90 1008.98 1009.13 1009.32 1009.54 1009.78 1010.03 1010.28 1010.51 1010.75 1010.97 1011.19 1011.41 1011.64 1011.86 1012.10 1012.35 1012.63 1012.93 1013.27 1013.66 1014.08 1014.54 1015.03 1015.54 1016.04 1016.51 1016.93 1017.29 1017.58 1017.79 1017.94
1011.82 1011.54 1011.27 1011.01 1010.74 1010.47 1010.19 1009.91 1009.64 1009.39 1009.19 1009.03 1008.94 1008.90 1008.93 1009.01 1009.14 1009.30 1009.48 1009.69 1009.90 1010.12 1010.34 1010.57 1010.79 1011.02 1011.26 1011.52 1011.79 1012.10 1012.44 1012.82 1013.25 1013.72 1014.23 1014.76 1015.30 1015.82 1016.31 1016.76 1017.15 1017.46 1017.72 1017.91
1011.76 1011.57 1011.41 1011.26 1011.09 1010.90 1010.68 1010.43 1010.16 1009.87 1009.59 1009.33 1009.10 1008.92 1008.79 1008.72 1008.71 1008.74 1008.82 1008.94 1009.09 1009.27 1009.46 1009.67 1009.90 1010.15 1010.42 1010.72 1011.05 1011.41 1011.82 1012.27 1012.76 1013.29 1013.85 1014.42 1015.00 1015.56 1016.08 1016.56 1016.98 1017.34 1017.64 1017.90
1011.94 1011.85 1011.78 1011.71 1011.62 1011.50 1011.32 1011.09 1010.80 1010.46 1010.10 1009.72 1009.36 1009.02 1008.73 1008.49 1008.31 1008.19 1008.13 1008.13 1008.19 1008.29 1008.44 1008.63 1008.86 1009.12 1009.43 1009.77 1010.16 1010.60 1011.08 1011.60 1012.16 1012.76 1013.37 1013.99 1014.61 1015.20 1015.76 1016.27 1016.74 1017.15 1017.52 1017.85
1012.27 1012.24 1012.24 1012.23 1012.20 1012.12 1011.98 1011.75 1011.44 1011.07 1010.63 1010.16 1009.68 1009.20 1008.75 1008.34 1008.00 1007.72 1007.52 1007.39 1007.33 1007.34 1007.43 1007.57 1007.78 1008.05 1008.38 1008.77 1009.22 1009.71 1010.26 1010.85 1011.48 1012.13 1012.79 1013.45 1014.10 1014.73 1015.32 1015.88 1016.39 1016.87 1017.31 1017.73
1012.61 1012.62 1012.66 1012.70 1012.71 1012.66 1012.53 1012.31 1012.00 1011.60 1011.12 1010.59 1010.02 1009.43 1008.86 1008.33 1007.84 1007.42 1007.08 1006.81 1006.64 1006.55 1006.55 1006.63 1006.80 1007.06 1007.38 1007.79 1008.27 1008.81 1009.40 1010.04 1010.71 1011.40 1012.10 1012.80 1013.48 1014.14 1014.77 1015.37 1015.94 1016.49 1017.01 1017.53
1012.87 1012.91 1012.97 1013.02 1013.05 1013.01 1012.90 1012.70 1012.41 1012.01 1011.53 1010.97 1010.37 1009.73 1009.08 1008.46 1007.87 1007.33 1006.87 1006.48 1006.19 1005.99 1005.89 1005.89 1005.99 1006.19 1006.49 1006.89 1007.36 1007.91 1008.53 1009.19 1009.88 1010.60 1011.33 1012.05 1012.76 1013.45 1014.12 1014.77 1015.41 1016.03 1016.65 1017.26
1013.00 1013.04 1013.10 1013.15 1013.18 1013.16 1013.07 1012.90 1012.63 1012.27 1011.82 1011.29 1010.69 1010.05 1009.39 1008.72 1008.07 1007.46 1006.89 1006.40 1005.99 1005.68 1005.46 1005.36 1005.37 1005.49 1005.73 1006.07 1006.51 1007.05 1007.65 1008.31 1009.02 1009.75 1010.50 1011.25 1011.99 1012.72 1013.44 1014.15 1014.85 1015.55 1016.25 1016.95
1013.03 1013.06 1013.10 1013.14 1013.16 1013.15 1013.08 1012.93 1012.71 1012.40 1012.00 1011.53 1010.98 1010.37 1009.73 1009.06 1008.38 1007.72 1007.08 1006.50 1005.98 1005.55 1005.22 1005.00 1004.89 1004.91 1005.06 1005.33 1005.72 1006.21 1006.78 1007.44 1008.14 1008.89 1009.66 1010.43 1011.22 1012.00 1012.77 1013.55 1014.32 1015.10 1015.88 1016.66
1013.04 1013.03 1013.04 1013.06 1013.06 1013.04 1012.97 1012.85 1012.67 1012.41 1012.08 1011.67 1011.19 1010.64 1010.04 1009.39 1008.71 1008.02 1007.34 1006.68 1006.07 1005.53 1005.08 1004.73 1004.51 1004.42 1004.46 1004.64 1004.96 1005.40 1005.95 1006.58 1007.29 1008.05 1008.85 1009.67 1010.51 1011.34 1012.19 1013.03 1013.88 1014.73 1015.58 1016.42
1013.08 1013.05 1013.02 1012.99 1012.96 1012.91 1012.83 1012.72 1012.56 1012.34 1012.07 1011.72 1011.30 1010.81 1010.26 1009.64 1008.98 1008.27 1007.56 1006.84 1006.15 1005.52 1004.96 1004.50 1004.17 1003.97 1003.91 1004.01 1004.26 1004.65 1005.17 1005.79 1006.51 1007.29 1008.13 1009.00 1009.90 1010.80 1011.71 1012.63 1013.54 1014.45 1015.36 1016.25
1013.24 1013.16 1013.08 1013.00 1012.92 1012.82 1012.71 1012.58 1012.42 1012.22 1011.97 1011.66 1011.29 1010.85 1010.34 1009.75 1009.11 1008.41 1007.67 1006.92 1006.18 1005.47 1004.83 1004.29 1003.86 1003.57 1003.43 1003.46 1003.66 1004.01 1004.50 1005.12 1005.85 1006.67 1007.55 1008.48 1009.43 1010.40 1011.38 1012.35 1013.32 1014.28 1015.22 1016.14
1013.52 1013.40 1013.26 1013.11 1012.96 1012.80 1012.63 1012.45 1012.25 1012.04 1011.79 1011.49 1011.15 1010.74 1010.26 1009.71 1009.09 1008.40 1007.67 1006.90 1006.14 1005.39 1004.71 1004.10 1003.62 1003.27 1003.08 1003.06 1003.21 1003.54 1004.02 1004.64 1005.38 1006.23 1007.14 1008.12 1009.12 1010.14 1011.17 1012.19 1013.20 1014.19 1015.15 1016.09
1013.89 1013.72 1013.51 1013.29 1013.05 1012.81 1012.56 1012.31 1012.06 1011.80 1011.53 1011.22 1010.88 1010.49 1010.04 1009.52 1008.93 1008.27 1007.57 1006.82 1006.07 1005.32 1004.63 1004.01 1003.51 1003.13 1002.91 1002.87 1003.01 1003.31 1003.78 1004.40 1005.15 1006.01 1006.95 1007.94 1008.98 1010.03 1011.08 1012.13 1013.15 1014.16 1015.12 1016.05
1014.26 1014.03 1013.76 1013.46 1013.14 1012.81 1012.47 1012.15 1011.83 1011.51 1011.19 1010.87 1010.52 1010.14 1009.71 1009.22 1008.68 1008.08 1007.42 1006.73 1006.03 1005.33 1004.67 1004.08 1003.59 1003.23 1003.02 1002.97 1003.09 1003.39 1003.85 1004.46 1005.19 1006.04 1006.97 1007.96 1008.99 1010.04 1011.10 1012.14 1013.16 1014.16 1015.11 1016.03
1014.53 1014.25 1013.91 1013.54 1013.14 1012.73 1012.31 1011.91 1011.52 1011.15 1010.79 1010.44 1010.08 1009.71 1009.31 1008.88 1008.39 1007.86 1007.29 1006.69 1006.07 1005.45 1004.87 1004.35 1003.92 1003.59 1003.41 1003.37 1003.50 1003.78 1004.22 1004.80 1005.50 1006.32 1007.21 1008.17 1009.16 1010.18 1011.21 1012.22 1013.22 1014.19 1015.12 1016.01
Thickness
5669 5676 5679 5680 5682 5682 5675 5668 5660 5667 5671 5680 5685 5687 5688 5689 5688 5686 5684 5684 5683 5681 5680 5680 5679 5679 5678 5678 5677 5676 5674 5672 5670 5671 5670 5668 5666 5665 5663 5662 5660 5658 5655 5654
5661 5671 5673 5673 5677 5678 5678 5676 5670 5670 5671 5684 5687 5685 5683 5682 5682 5680 5679 5679 5678 5677 5676 5675 5674 5674 5673 5672 5671 5670 5668 5667 5666 5665 5664 5663 5661 5660 5658 5656 5655 5653 5650 5649
5642 5656 5661 5655 5668 5671 5672 5674 5672 5665 5671 5678 5677 5678 5677 5677 5677 5677 5676 5675 5673 5672 5671 5670 5670 5669 5668 5667 5666 5664 5663 5661 5660 5659 5657 5657 5656 5654 5652 5650 5649 5647 5646 5644
5632 5640 5633 5655 5673 5673 5668 5669 5671 5672 5674 5675 5675 5675 5675 5675 5673 5672 5672 5670 5668 5667 5666 5666 5665 5664 5663 5661 5660 5658 5657 5655 5654 5653 5651 5650 5649 5648 5647 5645 5644 5643 5641 5640
5619 5621 5632 5652 5664 5665 5659 5657 5665 5665 5667 5668 5670 5666 5664 5669 5669 5668 5668 5667 5665 5664 5663 5661 5659 5658 5656 5654 5652 5651 5649 5649 5649 5647 5645 5644 5642 5642 5641 5640 5639 5638 5637 5635
5612 5615 5617 5641 5659 5665 5657 5644 5657 5659 5658 5659 5658 5645 5650 5661 5662 5661 5662 5661 5660 5658 5657 5655 5654 5652 5649 5646 5645 5644 5644 5644 5643 5642 5640 5638 5637 5636 5636 5635 5635 5633 5632 5630
5607 5607 5618 5641 5652 5653 5631 5635 5650 5651 5651 5649 5646 5646 5650 5655 5655 5654 5654 5654 5653 5651 5649 5648 5647 5645 5642 5640 5638 5640 5640 5638 5637 5635 5634 5633 5632 5630 5630 5629 5628 5627 5625 5624
5601 5600 5611 5639 5641 5633 5632 5640 5642 5643 5643 5642 5642 5645 5645 5645 5645 5645 5645 5645 5645 5642 5641 5640 5639 5637 5634 5633 5634 5634 5632 5631 5630 5629 5629 5628 5625 5624 5623 5622 5621 5619 5618 5617
5607 5610 5624 5631 5633 5635 5634 5632 5633 5634 5636 5636 5636 5635 5636 5636 5635 5636 5636 5636 5636 5634 5632 5631 5631 5630 5627 5627 5627 5626 5624 5623 5623 5622 5621 5620 5618 5617 5616 5615 5614 5613 5612 5611
5604 5611 5619 5623 5627 5628 5628 5627 5628 5629 5630 5629 5628 5628 5627 5626 5626 5626 5627 5627 5626 5625 5623 5622 5622 5622 5621 5621 5620 5619 5617 5615 5615 5614 5613 5612 5612 5611 5609 5609 5608 5607 5606 5605
5598 5606 5610 5615 5617 5620 5621 5622 5621 5622 5622 5622 5621 5620 5619 5618 5618 5617 5618 5618 5617 5616 5615 5615 5615 5614 5614 5613 5612 5610 5609 5608 5607 5607 5606 5605 5605 5605 5605 5605 5606 5605 5603 5601
5592 5600 5598 5602 5609 5613 5613 5613 5614 5613 5613 5614 5613 5611 5610 5609 5609 5609 5608 5608 5608 5607 5607 5607 5607 5607 5606 5606 5605 5603 5601 5600 5600 5599 5598 5598 5597 5597 5598 5599 5600 5601 5600 5598
5596 5599 5598 5600 5602 5604 5605 5606 5607 5606 5605 5603 5604 5604 5602 5601 5601 5600 5600 5600 5600 5600 5601 5601 5600 5600 5600 5599 5598 5597 5595 5593 5592 5592 5591 5590 5590 5589 5588 5589 5591 5592 5592 5592
5594 5593 5591 5592 5592 5595 5596 5598 5598 5598 5597 5596 5595 5594 5593 5592 5592 5591 5592 5593 5594 5593 5593 5593 5593 5593 5594 5593 5592 5590 5589 5588 5587 5586 5585 5584 5584 5583 5583 5582 5581 5582 5584 5584
5586 5586 5585 5586 5586 5586 5587 5587 5585 5585 5586 5585 5585 5584 5583 5582 5582 5584 5585 5586 5586 5585 5585 5585 5585 5586 5587 5586 5585 5583 5582 5581 5580 5579 5578 5577 5577 5576 5576 5575 5575 5575 5575 5575
5579 5579 5578 5578 5578 5578 5577 5576 5575 5574 5575 5576 5575 5575 5575 5575 5575 5576 5577 5577 5576 5576 5577 5577 5578 5579 5578 5577 5576 5575 5574 5574 5573 5572 5570 5569 5569 5569 5568 5568 5568 5568 5568 5568
5570 5569 5569 5569 5569 5569 5569 5568 5568 5568 5567 5567 5568 5568 5568 5567 5567 5567 5568 5569 5570 5570 5570 5570 5571 5571 5570 5569 5568 5567 5566 5566 5565 5564 5563 5563 5562 5562 5562 5562 5562 5562 5562 5563
5565 5564 5564 5563 5562 5561 5561 5561 5562 5562 5561 5561 5561 5560 5559 5558 5558 5559 5560 5560 5560 5561 5561 5562 5563 5563 5562 5561 5559 5559 5558 5558 5557 5557 5557 5557 5556 5556 5556 5556 5556 5556 5556 5556
5557 5557 5557 5557 5556 5554 5554 5554 5554 5554 5555 5554 5553 5552 5552 5552 5552 5553 5552 5552 5551 5551 5552 5553 5554 5554 5554 5553 5552 5551 5551 5550 5550 5550 5550 5550 5549 5548 5548 5548 5549 5549 5549 5549
5550 5550 5550 5550 5550 5549 5548 5548 5548 5548 5547 5547 5546 5545 5544 5544 5544 5544 5544 5544 5545 5545 5546 5545 5545 5545 5546 5545 5545 5544 5543 5543 5543 5543 5543 5542 5542 5542 5542 5542 5543 5543 5544 5544
5542 5542 5542 5541 5542 5542 5542 5542 5541 5540 5540 5540 5538 5537 5536 5536 5536 5536 5535 5536 5538 5538 5538 5539 5538 5538 5538 5538 5537 5536 5536 5535 5535 5535 5535 5535 5535 5536 5536 5536 5536 5537 5538 5538
5533 5533 5534 5535 5535 5535 5535 5535 5534 5534 5533 5532 5532 5530 5529 5528 5528 5528 5529 5529 5530 5531 5531 5531 5531 5532 5532 5531 5530 5529 5528 5528 5528 5528 5528 5528 5528 5528 5529 5529 5529 5530 5531 5531
5523 5524 5525 5526 5526 5526 5527 5526 5526 5525 5525 5524 5524 5523 5522 5522 5521 5521 5522 5523 5522 5523 5524 5524 5525 5525 5525 5523 5522 5521 5520 5520 5520 5520 5521 5521 5521 5522 5522 5522 5522 5523 5523 5523
5514 5515 5516 5517 5517 5517 5517 5517 5516 5516 5516 5516 5516 5516 5515 5514 5514 5515 5515 5516 5516 5516 5515 5515 5516 5516 5515 5513 5513 5513 5513 5512 5512 5513 5513 5514 5514 5514 5514 5514 5514 5515 5515 5515
5505 5506 5507 5507 5506 5506 5507 5507 5507 5507 5507 5507 5507 5507 5507 5506 5506 5506 5506 5506 5507 5507 5506 5506 5507 5507 5505 5505 5505 5505 5504 5505 5505 5505 5506 5506 5506 5506 5506 5506 5506 5507 5507 5507
5496 5496 5497 5496 5496 5496 5497 5497 5497 5497 5497 5497 5497 5497 5496 5496 5496 5496 5496 5496 5497 5497 5497 5497 5496 5496 5496 5496 5497 5497 5497 5497 5497 5497 5497 5497 5498 5498 5498 5498 5498 5498 5498 5499
5488 5487 5487 5487 5487 5487 5488 5488 5488 5488 5488 5487 5487 5487 5486 5486 5485 5485 5485 5486 5486 5486 5487 5487 5487 5487 5487 5487 5488 5488 5488 5488 5488 5488 5488 5488 5489 5489 5489 5489 5489 5489 5489 5489